CAPE
203 175 67 31 0 0 0 0 0 0 0 0 0 0 0 0 0 0 0 0 0 0
85 47 51 3 0 0 0 0 0 0 0 0 0 0 0 0 0 0 0 0 0 0
13 1 1 0 0 0 0 0 0 0 0 0 0 0 0 0 0 0 0 0 0 0
0 0 0 0 0 0 0 0 0 0 0 0 0 0 0 0 0 0 0 0 0 0
0 0 0 0 0 0 0 0 0 0 0 0 0 0 0 0 0 0 0 0 0 0
0 0 0 0 0 0 0 0 0 0 0 0 0 0 0 0 0 0 0 0 0 0
2 0 0 0 0 0 0 0 0 0 0 0 0 0 0 0 0 0 0 0 0 0
3 0 0 0 0 0 0 0 0 0 0 0 0 0 0 0 0 0 0 0 0 0
1 0 0 0 0 0 0 0 0 0 0 0 0 0 0 0 0 0 0 0 0 0
3 0 0 0 0 0 0 0 0 0 0 0 0 0 0 0 0 0 0 0 0 0
0 2 0 0 0 0 0 0 0 0 0 0 0 0 0 0 0 0 0 0 0 0
0 0 0 0 0 0 0 0 0 0 0 0 0 0 0 0 0 0 0 0 0 0
0 0 0 0 0 0 0 0 0 0 0 0 0 0 0 0 0 0 0 0 0 0
0 0 0 0 0 0 0 0 0 0 0 0 0 0 0 0 0 0 0 0 0 0
CIN
-250 -270 -338 -389 0 0 0 0 0 0 0 0 0 0 0 0 0 0 0 0 0 0
-297 -415 -421 -184 0 0 0 0 0 0 0 0 0 0 0 0 0 0 0 0 0 0
-227 -227 -148 0 0 0 0 0 0 0 0 0 0 0 0 0 0 0 0 0 0 0
0 -164 0 0 0 0 0 0 0 0 0 0 0 0 0 0 0 0 0 0 0 0
0 0 0 0 0 0 0 0 0 0 0 0 0 0 0 0 0 0 0 0 0 0
0 0 0 0 0 0 0 0 0 0 0 0 0 0 0 0 0 0 0 0 0 0
0 0 0 0 0 0 0 0 0 0 0 0 0 0 0 0 0 0 0 0 0 0
0 0 0 0 0 0 0 0 0 0 0 0 0 0 0 0 0 0 0 0 0 0
0 0 0 0 0 0 0 0 0 0 0 0 0 0 0 0 0 0 0 0 0 0
0 0 0 0 0 0 0 0 0 0 0 0 0 0 0 0 0 0 0 0 0 0
0 0 0 0 0 0 0 0 0 0 0 0 0 0 0 0 0 0 0 0 0 0
0 0 0 0 0 0 0 0 0 0 0 0 0 0 0 0 0 0 0 0 0 0
0 0 0 0 0 0 0 0 0 0 0 0 0 0 0 0 0 0 0 0 0 0
0 0 0 0 0 0 0 0 0 0 0 0 0 0 0 0 0 0 0 0 0 0
Wind_Speed
19 23 21 19 17 13 11 6 4 6 7 7 8 9 9 11 14 15 16 17 19 20
18 15 25 21 18 16 8 6 3 4 5 6 7 8 8 11 13 14 16 17 19 21
17 17 28 23 18 14 9 5 2 2 4 5 6 7 8 10 12 14 16 18 19 21
22 19 31 22 19 15 10 5 2 0 3 4 5 6 7 9 12 14 16 18 20 22
20 22 30 23 17 14 10 6 3 1 2 3 5 6 7 9 11 13 15 18 20 22
27 29 31 24 17 14 11 6 4 1 1 4 4 6 7 9 11 13 15 18 20 22
27 34 28 23 17 13 10 7 4 2 2 1 3 6 8 9 11 13 16 18 20 22
30 32 26 21 17 14 11 7 5 4 2 2 4 6 7 9 10 12 15 18 20 22
27 27 26 20 16 14 11 7 5 4 3 3 3 7 8 9 10 12 15 17 20 22
26 25 23 19 14 14 11 8 6 5 3 3 3 7 8 9 11 12 15 17 20 23
28 21 20 19 14 11 11 9 7 5 3 3 2 7 8 10 11 12 15 18 21 22
26 22 21 18 15 13 12 9 7 5 4 3 3 6 8 9 10 12 15 18 20 22
25 24 19 16 15 11 12 11 9 6 4 3 3 6 7 7 9 11 14 17 19 21
24 22 20 16 13 15 12 10 9 7 7 4 1 4 6 6 8 11 13 15 18 19
Wind_Direction
208 225 231 233 236 247 258 275 304 332 341 359 23 38 39 38 41 47 45 42 39 34
209 188 224 229 235 242 249 267 297 335 356 15 30 48 42 39 42 44 40 34 32 28
215 214 220 224 229 234 241 256 280 311 12 18 44 43 39 37 36 40 36 31 26 24
236 193 219 222 226 230 234 225 216 37 57 67 60 46 40 41 45 37 35 27 20 20
212 194 218 220 222 220 221 223 223 136 74 73 72 59 49 46 44 35 25 21 17 18
215 212 214 217 216 220 222 216 217 170 113 99 77 68 52 50 42 32 25 18 16 18
211 213 216 216 214 212 217 203 205 188 140 94 75 71 62 52 42 32 23 18 17 18
214 214 214 214 213 217 216 215 199 172 153 108 85 66 65 59 50 35 19 18 17 19
212 211 211 211 210 211 213 196 186 191 175 125 87 83 75 61 46 27 22 18 19 21
208 205 207 208 194 204 204 204 205 205 181 131 92 90 75 59 44 31 24 21 19 20
210 208 198 198 172 185 212 214 208 198 181 136 107 96 73 64 44 28 26 21 19 23
202 201 199 198 199 200 214 218 210 198 173 148 128 97 87 63 37 33 28 21 21 26
199 195 196 194 199 198 217 218 214 212 221 194 128 106 89 61 40 36 30 25 23 31
198 197 196 189 187 209 210 207 215 221 240 246 227 101 89 63 44 40 38 36 32 38